DW5057 Weather Reports


Display with metric or nautical units.
time (UTC)temp
F
wind
direction
speed
MPH
gust
MPH
rain 1hr
in
rain 24hr
in
rain mn
in
humidity
%
barometer
mb
20260506050537 59 162 1.0 4.0 0.00 0.00 0.00 91 1013.7
20260506044518 59 163 1.0 3.0 0.00 0.00 0.00 91 1013.7
20260506043519 59 170 1.0 3.0 0.00 0.00 0.00 90 1013.6
20260506042519 59 175 1.0 3.0 0.00 0.00 0.00 91 1013.6
20260506041517 59 189 1.0 3.0 0.00 0.00 0.00 91 1013.6
20260506040516 59 229 1.0 4.0 0.00 0.00 0.00 90 1013.6
20260506035517 59 195 1.0 4.0 0.00 0.00 0.00 90 1013.7
20260506034517 59 172 1.0 3.0 0.00 0.00 0.00 90 1013.7
20260506033538 59 187 1.0 3.0 0.00 0.00 0.00 90 1013.7
20260506032517 59 221 1.0 3.0 0.00 0.00 0.00 90 1013.8
20260506031517 59 216 1.0 5.0 0.00 0.00 0.00 89 1013.7
20260506030518 59 177 1.0 3.0 0.00 0.00 0.00 89 1013.7
20260506025518 59 204 1.0 4.0 0.00 0.00 0.00 89 1013.8
20260506024538 60 225 1.0 3.0 0.00 0.00 0.00 88 1013.8
20260506023518 60 140 1.0 2.0 0.00 0.00 0.00 88 1013.8
20260506022518 60 188 1.0 4.0 0.00 0.00 0.00 88 1013.7
20260506021518 60 190 1.0 2.0 0.00 0.00 0.00 87 1013.7
20260506020518 60 191 1.0 4.0 0.00 0.00 0.00 87 1013.7
20260506015538 60 130 1.0 3.0 0.00 0.00 0.00 87 1013.6
20260506014519 60 186 1.0 3.0 0.00 0.00 0.00 87 1013.5
20260506013516 60 181 1.0 5.0 0.00 0.00 0.00 86 1013.4
20260506012536 61 173 1.0 4.0 0.00 0.00 0.00 86 1013.4
20260506011516 61 148 1.0 3.0 0.00 0.00 0.00 86 1013.3
20260506010517 61 121 1.0 3.0 0.00 0.00 0.00 85 1013.3
20260506005517 61 144 1.0 3.0 0.00 0.00 0.00 86 1013.1
20260506004517 61 138 1.0 5.0 0.00 0.00 0.00 86 1013.0
20260506003517 61 137 1.0 3.0 0.00 0.00 0.00 86 1012.8
20260506002517 61 127 1.0 3.0 0.00 0.00 0.00 86 1012.8
20260506001557 61 129 1.0 4.0 0.00 0.00 0.00 86 1012.8
20260506000517 61 174 1.0 3.0 0.00 0.00 0.00 85 1012.8
20260505235538 61 229 1.0 4.0 0.00 0.00 0.00 85 1012.8
20260505234522 61 156 1.0 3.0 0.00 0.00 0.00 84 1012.8
20260505233518 61 192 1.0 4.0 0.00 0.00 0.00 84 1012.7
20260505232519 62 174 1.0 4.0 0.00 0.00 0.00 83 1012.8
20260505231538 62 178 1.0 4.0 0.00 0.00 0.00 83 1012.8
20260505230559 62 207 1.0 3.0 0.00 0.00 0.00 82 1012.7
20260505225535 62 189 2.0 4.0 0.00 0.00 0.00 81 1012.7
20260505224516 62 177 2.0 5.0 0.00 0.00 0.00 81 1012.6
20260505223516 63 179 2.0 5.0 0.00 0.00 0.00 79 1012.5
20260505222516 63 177 2.0 4.0 0.00 0.00 0.00 79 1012.4
20260505221516 63 174 2.0 5.0 0.00 0.00 0.00 78 1012.5
20260505220557 63 181 2.0 5.0 0.00 0.00 0.00 77 1012.4
20260505215557 63 170 3.0 6.0 0.00 0.00 0.00 77 1012.3
20260505214516 63 170 2.0 6.0 0.00 0.00 0.00 77 1012.2
20260505213517 64 174 3.0 5.0 0.00 0.00 0.00 77 1012.1
20260505212517 64 169 3.0 6.0 0.00 0.00 0.00 77 1012.1
20260505211537 64 154 3.0 5.0 0.00 0.00 0.00 77 1012.2
20260505210518 64 158 2.0 5.0 0.00 0.00 0.00 77 1012.1
20260505205518 65 159 2.0 4.0 0.00 0.00 0.00 76 1012.2
20260505204518 65 164 3.0 6.0 0.00 0.00 0.00 75 1012.1
20260505203518 64 152 3.0 5.0 0.00 0.00 0.00 76 1012.2
20260505202519 65 156 2.0 6.0 0.00 0.00 0.00 76 1012.2
20260505201518 65 134 2.0 5.0 0.00 0.00 0.00 75 1012.3
20260505200618 65 133 2.0 6.0 0.00 0.00 0.00 75 1012.3
20260505195519 65 148 2.0 5.0 0.00 0.00 0.00 75 1012.3
20260505194516 65 130 2.0 4.0 0.00 0.00 0.00 75 1012.4
20260505193516 65 143 2.0 3.0 0.00 0.00 0.00 75 1012.5
20260505192516 65 165 1.0 4.0 0.00 0.00 0.00 75 1012.6
20260505191516 65 168 1.0 4.0 0.00 0.00 0.00 76 1012.8
20260505190537 65 164 1.0 4.0 0.00 0.00 0.00 76 1012.9
20260505185516 65 190 2.0 4.0 0.00 0.00 0.00 76 1013.0
20260505184517 66 172 1.0 4.0 0.00 0.00 0.00 74 1013.1
20260505183517 66 131 1.0 4.0 0.00 0.00 0.00 73 1012.9
20260505182517 66 89 1.0 3.0 0.00 0.00 0.00 73 1013.0
20260505181517 66 123 1.0 3.0 0.00 0.00 0.00 73 1013.0
20260505180517 66 105 1.0 6.0 0.00 0.00 0.00 73 1013.2
20260505175518 67 100 1.0 4.0 0.00 0.00 0.00 71 1013.4
20260505174517 67 43 1.0 5.0 0.00 0.00 0.00 71 1013.4
20260505173540 67 101 2.0 5.0 0.00 0.00 0.00 72 1013.4
20260505172518 67 161 1.0 5.0 0.00 0.00 0.00 71 1013.4
20260505171518 66 125 1.0 3.0 0.00 0.00 0.00 72 1013.5
20260505170700 66 104 1.0 4.0 0.00 0.00 0.00 72 1013.5
20260505165519 67 111 1.0 3.0 0.00 0.00 0.00 71 1013.5
20260505164539 66 116 1.0 5.0 0.00 0.00 0.00 72 1013.5
20260505163516 68 122 1.0 4.0 0.00 0.00 0.00 71 1013.6
20260505162516 68 78 1.0 4.0 0.00 0.00 0.00 70 1013.7
20260505161516 69 63 1.0 3.0 0.00 0.00 0.00 68 1013.7
20260505160516 69 82 1.0 5.0 0.00 0.00 0.00 69 1013.8
20260505152517 71 33 1.0 4.0 0.00 0.00 0.00 65 1013.9
20260505151517 71 56 2.0 4.0 0.00 0.00 0.00 64 1013.9
20260505150518 71 50 1.0 4.0 0.00 0.00 0.00 63 1013.9
20260505140519 71 47 1.0 3.0 0.00 0.00 0.00 64 1014.0
20260505124516 64 234 0.0 2.0 0.00 0.00 0.00 74 1013.7
20260505123516 63 208 0.0 2.0 0.00 0.00 0.00 76 1013.6
20260505122538 62 148 1.0 2.0 0.00 0.00 0.00 78 1013.7
20260505121538 62 185 1.0 2.0 0.00 0.00 0.00 79 1013.7
20260505120517 61 187 1.0 3.0 0.00 0.00 0.00 80 1013.6
20260505115517 61 149 1.0 2.0 0.00 0.00 0.00 80 1013.5
20260505114518 61 198 0.0 2.0 0.00 0.00 0.00 81 1013.5
20260505113517 61 176 0.0 2.0 0.00 0.00 0.00 82 1013.5
20260505112518 61 191 0.0 2.0 0.00 0.00 0.00 80 1013.4
20260505111518 61 122 0.0 2.0 0.00 0.00 0.00 80 1013.3
20260505110538 61 53 1.0 2.0 0.00 0.00 0.00 80 1013.2
20260505101516 60 206 0.0 2.0 0.00 0.00 0.00 81 1013.0
20260505100536 59 168 0.0 2.0 0.00 0.00 0.00 83 1012.9
20260505095517 59 174 0.0 2.0 0.00 0.00 0.00 86 1012.9
20260505094517 59 246 0.0 3.0 0.00 0.00 0.00 85 1012.9
20260505093536 58 57 0.0 1.0 0.00 0.00 0.00 85 1012.9
20260505092517 58 4 0.0 1.0 0.00 0.00 0.00 87 1012.7
20260505091517 58 8 0.0 2.0 0.00 0.00 0.00 87 1012.6
20260505090517 58 30 0.0 1.0 0.00 0.00 0.00 87 1012.6
20260505085517 58 22 0.0 1.0 0.00 0.00 0.00 88 1012.7
20260505084517 58 133 0.0 1.0 0.00 0.00 0.00 88 1012.7
20260505083539 58 333 0.0 1.0 0.00 0.00 0.00 89 1012.8
20260505082518 58 30 0.0 1.0 0.00 0.00 0.00 89 1012.8
20260505081518 58 243 0.0 1.0 0.00 0.00 0.00 89 1012.9
20260505080518 58 257 0.0 2.0 0.00 0.00 0.00 88 1012.8
20260505075518 59 123 0.0 1.0 0.00 0.00 0.00 87 1012.8
20260505074518 59 209 0.0 1.0 0.00 0.00 0.00 86 1012.8
20260505073518 59 189 0.0 1.0 0.00 0.00 0.00 86 1012.7
20260505072518 59 10 0.0 2.0 0.00 0.00 0.00 86 1012.6
20260505071516 59 192 0.0 2.0 0.00 0.00 0.00 86 1012.6
20260505070516 59 203 1.0 3.0 0.00 0.00 0.00 86 1012.6
20260505065536 60 203 0.0 2.0 0.00 0.00 0.00 85 1012.5
20260505064516 60 193 0.0 2.0 0.00 0.00 0.00 85 1012.4
20260505063516 59 198 0.0 2.0 0.00 0.00 0.00 86 1012.4
20260505062517 59 187 0.0 2.0 0.00 0.00 0.00 87 1012.5
20260505061517 59 241 0.0 2.0 0.00 0.00 0.00 87 1012.6
20260505060517 59 193 0.0 3.0 0.00 0.00 0.00 87 1012.6
20260505055517 59 194 1.0 2.0 0.00 0.00 0.00 87 1012.6
20260505054517 59 197 0.0 2.0 0.00 0.00 0.00 87 1012.6
20260505053518 58 195 1.0 2.0 0.00 0.00 0.00 88 1012.6